TITAN 3C TRANSTAGE DEB, 26528

Orbit data source: Space-Track

TITAN 3C TRANSTAGE DEB, 26528 is space debris in HEO originally from a launch on Tue, 21 Dec 1965 UTC launched from the Air Force Eastern Test Range (AFETR). Debris objects in space refer to the collection of defunct objects orbiting the Earth. Examples of debris include non-operational satellites, rocket bodies, and fragments generated from explosions, collisions, or faulty payload assembly.

Loading next visibility...
Identifier
26528, 1965-108AP
Orbit
HEO
Country
Flag of USUS
Related business
Manufacturer
Unknown
Mission
Spacecraft
Bus & Motor
Unknown
Mass
Unknown
Launch date (UTC)
1965-12-21 (60 years ago)
Launch vehicle
Unknown
Launch site
Air Force Eastern Test Range (AFETR)
Object type
Payload
Rocket body
Debris
Shape & HBR
Unknown shape, 0.1 m
Radar Cross Section
Medium (>0.1 m² and <1 m²)

Expand to show TLE details & history
Last TLE update: 1 day ago

TLE from 1 day ago
0 TITAN 3C TRANSTAGE DEB
1 26528U 65108AP  25349.42495110 -.00000122  00000-0 -55140-2 0  9996
2 26528  27.5965 356.1336 6667711 183.7101 354.8379  2.68094332263514
Epoch: 2025-12-15T10:11Z
TLE epoch observation values (Epoch: 2025-12-15T10:11:55.775Z)
Latitude
13.31534°
Longitude
-87.95178°
Altitude
1,451.297 km
Speed
9.144 km/s
True Right ascension
09h 57m 25s
True Declination
13° 14' 43"
Sunlit
Object was in daylight at epoch
Visualization orbit readout
Latitude
Unknown
Longitude
Unknown
Altitude
Unknown
Speed
Unknown
Apparent Right ascension
Unknown
Apparent Declination
Unknown
Sunlit
N/A
Visualization observer readout
Local Sidereal Time
11:39:03
Azimuth
Unknown
Elevation
Unknown
Doppler factor
Unknown
Orbital elements
Apogee altitude
30,110.003 km
Perigee altitude
916.747 km
Semi-major axis
21,891.512 km
Eccentricity
0.66677
Inclination
27.5965°
RAAN
356.1336°
Arg. of periapsis
183.7101°
True anomaly
326.89437°
Mean anomaly
354.8379°
Eccentric anomaly
344.86015°
Mean motion
0.67008 °/min
Orbital period
537.25 mins
BSTAR
-0.005514
Loading maneuver chart data...
Computing Atmospheric mass density...

Documentation

Showing up to 5 results
|